Weather History for Fayetteville, AR

Change the Weather History Date:

Monday, November 26, 2012

  Actual Average Record
Temperature  
Mean Temperature 44 °F 43 °F  
Max Temperature 53 °F 54 °F 75 °F (1965)
Min Temperature 36 °F 32 °F 12 °F (1975)
Degree Days  
Heating Degree Days 20 22  
Month to date heating degree days 437  
Since 1 July heating degree days 737  
Moisture  
Dew Point 39 °F    
Average Humidity 85    
Maximum Humidity 100    
Minimum Humidity 67    
Precipitation  
Precipitation 0.06 in 0.13 in 0.32 in (2011)
Month to date precipitation 3.69  
Year to date precipitation 44.73  
Sea Level Pressure  
Sea Level Pressure 30.09 in    
Wind  
Wind Speed 2 mph (NNE)    
Max Wind Speed 10 mph    
Max Gust Speed 22 mph    
Visibility 7 miles    
Events Rain    
T = Trace of Precipitation, MM = Missing Value Source: NWS Daily Summary

Daily Weather History Graph

Daily Weather History Graph

Search for Another Location

Airport:

Trip Planner

Search our weather history database for the weather conditions in past years. The results will help you decide how hot, cold, wet, or windy it might be!

Date:

Astronomy

Nov. 26, 2012 Rise Set
Actual Time 7:04 AM CST 5:03 PM CST
Civil Twilight 6:36 AM CST 5:31 PM CST
Nautical Twilight 6:05 AM CST 6:02 PM CST
Astronomical Twilight 5:34 AM CST 6:33 PM CST
Moon 3:54 PM CST 5:17 AM CST
Length of Visible Light 10h 54m
Length of Day
9h 58m
Waxing Gibbous, 97% of the Moon is Illuminated
Nov 26
Waxing Gibbous
Nov 28
Full
Dec 6
Last Quarter
Dec 13
New
Dec 19
First Quarter

Hourly Weather History & Observations

Time (CST) Temp. Windchill Dew Point Humidity Pressure Visibility Wind Dir Wind Speed Gust Speed Precip Events Conditions
12:53 AM 36.0 °F - 33.1 °F 89% 29.94 in 10.0 mi Calm Calm - N/A   Partly Cloudy
1:53 AM 39.9 °F - 36.0 °F 86% 29.93 in 10.0 mi Calm Calm - N/A   Overcast
2:53 AM 39.0 °F - 35.1 °F 86% 29.92 in 10.0 mi Calm Calm - N/A   Mostly Cloudy
3:53 AM 39.0 °F - 35.1 °F 86% 29.92 in 10.0 mi Calm Calm - N/A   Clear
4:53 AM 37.0 °F - 35.1 °F 93% 29.93 in 10.0 mi North - - N/A   Partly Cloudy
5:53 AM 36.0 °F - 34.0 °F 93% 29.96 in 10.0 mi Calm Calm - N/A   Mostly Cloudy
6:53 AM 39.9 °F - 37.0 °F 89% 29.97 in 10.0 mi Calm Calm - N/A   Overcast
7:53 AM 42.1 °F - 39.0 °F 89% 29.99 in 10.0 mi Calm Calm - N/A   Overcast
8:53 AM 46.0 °F - 41.0 °F 83% 30.00 in 10.0 mi Calm Calm - N/A   Overcast
9:12 AM 48.2 °F - 41.0 °F 76% 29.99 in 10.0 mi Calm Calm - N/A   Overcast
9:53 AM 51.1 °F - 43.0 °F 74% 30.01 in 10.0 mi Calm Calm - N/A   Overcast
10:53 AM 53.1 °F - 44.1 °F 71% 30.03 in 10.0 mi Calm Calm - N/A   Overcast
11:53 AM 51.1 °F - 46.9 °F 86% 30.02 in 4.0 mi Calm Calm - 0.00 in Rain Light Rain
12:36 PM 51.8 °F - 48.2 °F 88% 30.01 in 3.0 mi Calm Calm - 0.02 in Rain Light Rain
12:53 PM 51.1 °F - 48.9 °F 92% 30.02 in 3.0 mi Calm Calm - 0.02 in   Overcast
1:53 PM 46.9 °F - 45.0 °F 93% 30.04 in 4.0 mi Variable 6.9 mph - N/A   Overcast
2:15 PM 46.4 °F 42.9 °F 44.6 °F 93% 30.04 in 2.5 mi NNE 6.9 mph - N/A   Overcast
2:35 PM 44.6 °F 41.4 °F 44.6 °F 100% 30.05 in 1.8 mi Variable 5.8 mph - 0.00 in Rain Light Rain
2:53 PM 45.0 °F 42.6 °F 43.0 °F 93% 30.07 in 1.8 mi NNE 4.6 mph - 0.02 in Rain Rain
3:06 PM 44.6 °F 40.7 °F 42.8 °F 93% 30.07 in 2.5 mi North 6.9 mph - 0.01 in Rain Light Rain
3:28 PM 44.6 °F 42.2 °F 42.8 °F 93% 30.09 in 1.8 mi NNE 4.6 mph - 0.01 in   Overcast
3:53 PM 43.0 °F 38.8 °F 42.1 °F 97% 30.12 in 1.8 mi Variable 6.9 mph - 0.02 in Rain Light Rain
4:08 PM 42.8 °F 37.5 °F 39.2 °F 87% 30.13 in 2.0 mi NNE 9.2 mph - 0.00 in Rain Light Rain
4:46 PM 41.0 °F 35.8 °F 39.2 °F 93% 30.16 in 4.0 mi NNE 8.1 mph 18.4 mph 0.00 in   Overcast
4:53 PM 41.0 °F 35.8 °F 39.0 °F 93% 30.19 in 5.0 mi North 8.1 mph 18.4 mph 0.00 in   Overcast
5:19 PM 41.0 °F 35.2 °F 37.4 °F 87% 30.19 in 10.0 mi NNE 9.2 mph 17.3 mph N/A   Overcast
5:53 PM 39.9 °F 35.8 °F 36.0 °F 86% 30.23 in 10.0 mi NE 5.8 mph - N/A   Overcast
6:53 PM 41.0 °F 34.7 °F 34.0 °F 76% 30.25 in 10.0 mi NE 10.4 mph 16.1 mph N/A   Overcast
7:53 PM 39.9 °F 33.4 °F 30.9 °F 70% 30.27 in 10.0 mi NE 10.4 mph 21.9 mph N/A   Overcast
8:53 PM 39.0 °F 34.8 °F 28.9 °F 67% 30.30 in 10.0 mi NNE 5.8 mph - N/A   Mostly Cloudy
9:53 PM 37.0 °F 31.6 °F 28.0 °F 70% 30.32 in 10.0 mi NNE 6.9 mph - N/A   Clear
10:53 PM 37.9 °F 34.4 °F 28.9 °F 70% 30.33 in 10.0 mi NE 4.6 mph - N/A   Overcast
11:53 PM 36.0 °F 33.3 °F 28.0 °F 73% 30.34 in 10.0 mi North 3.5 mph - N/A   Clear